Temperature
21 20 21 21 20 20 20 20 20 20 20 20 19 19 19 19 20 20 20 20 20 20 19 19 19 19 19 19 19 19 19 19 18 18 19 19 18 18 18 18 17 17 17
22 21 21 21 21 20 20 20 20 20 20 20 20 19 19 19 20 20 20 20 20 20 20 20 19 19 19 20 20 20 20 19 19 19 19 18 18 19 18 18 18 17 17
22 21 21 21 21 21 20 20 20 21 20 20 20 20 20 20 20 20 20 20 20 20 20 20 20 20 20 20 20 20 20 20 19 19 19 18 18 18 19 19 19 18 18
22 21 21 21 21 21 21 21 21 21 20 20 20 20 20 20 20 20 20 20 20 20 20 20 20 20 20 20 20 20 20 20 20 19 19 19 18 18 18 19 19 19 19
22 22 21 21 21 21 21 21 21 20 20 20 20 20 20 20 20 20 20 20 20 19 19 19 20 20 20 20 20 20 20 20 20 19 19 19 19 18 18 18 18 19 19
22 22 22 21 21 21 21 21 20 20 20 20 20 20 20 20 20 20 20 20 20 19 19 19 19 19 19 19 19 19 19 19 19 19 18 18 18 18 18 18 18 18 18
22 22 22 22 21 21 21 20 20 20 20 20 20 20 20 20 20 20 20 20 20 20 20 19 19 19 19 19 19 19 19 19 19 18 18 18 18 18 18 18 18 17 17
22 22 21 21 21 21 21 20 20 20 20 20 20 20 20 20 19 19 19 19 20 20 20 20 20 20 20 19 19 19 19 19 18 18 18 18 18 18 18 17 17 17 17
21 21 21 21 21 21 21 20 20 20 20 20 20 20 20 20 19 20 20 20 20 19 19 19 19 19 19 19 19 19 18 18 18 18 18 18 18 18 18 17 17 17 17
21 21 21 20 20 20 20 20 20 20 20 20 19 20 20 20 20 20 20 20 20 19 19 19 19 19 19 19 19 19 18 18 18 18 18 18 18 18 18 18 17 17 17
21 21 21 20 20 20 20 20 19 19 19 19 19 19 19 20 20 20 20 20 19 19 19 19 19 19 19 18 18 18 18 18 18 18 18 18 18 18 18 18 18 18 17
21 21 21 21 21 20 20 20 19 19 19 19 19 19 19 19 20 20 20 19 19 19 19 19 19 18 18 18 18 18 18 18 18 18 19 18 18 18 18 18 18 18 18
22 21 21 21 21 21 20 20 20 20 20 19 20 19 19 19 19 19 19 19 19 19 19 18 18 18 18 18 18 18 18 18 18 18 19 19 18 18 18 18 18 18 18
21 21 21 20 20 20 19 20 20 20 20 20 20 20 19 19 19 19 19 19 19 18 18 18 18 18 18 18 18 18 18 18 18 18 18 18 18 18 18 18 18 18 18
22 22 21 21 20 20 20 20 20 20 20 20 20 20 19 19 18 18 18 18 18 18 18 18 18 18 18 18 18 18 18 18 18 18 18 18 18 18 18 18 18 18 18
22 22 21 21 21 20 20 20 20 20 20 20 19 19 18 18 18 18 18 18 18 18 18 17 17 17 18 18 18 18 18 18 18 18 18 18 18 18 18 18 19 18 18
22 21 21 21 20 20 20 20 19 19 19 19 18 18 18 18 18 18 18 18 18 18 18 18 18 17 17 18 18 18 18 18 18 18 18 18 19 19 19 19 19 19 19
22 21 21 20 20 20 19 19 19 19 18 18 18 18 18 18 18 18 18 18 18 18 18 18 18 18 18 18 18 18 18 18 18 18 18 18 19 19 19 19 19 18 18
21 21 21 20 20 19 19 19 18 18 18 18 17 17 17 17 17 17 17 17 17 17 17 17 18 18 18 18 18 18 18 18 18 18 18 18 18 18 18 19 19 19 18
21 21 20 20 19 19 19 18 18 18 18 17 17 17 17 17 17 17 17 17 17 17 17 17 17 17 17 17 17 17 17 17 17 17 18 18 18 18 18 18 18 19 19
21 21 20 20 20 19 19 19 19 18 18 18 18 17 17 17 17 17 17 17 17 17 17 17 17 17 17 17 17 17 17 17 18 18 18 18 18 18 18 18 19 19 19
22 21 21 21 20 20 19 19 19 18 18 17 17 17 16 16 16 16 16 16 16 17 17 17 17 16 17 17 17 17 16 17 17 18 18 18 18 18 18 18 18 18 18
22 22 22 21 20 20 19 19 19 18 17 17 17 16 16 16 16 16 16 16 16 16 16 17 17 16 16 16 16 16 16 16 17 17 17 17 18 18 18 18 17 17 18
22 22 21 21 20 20 19 19 18 18 17 16 16 15 15 15 15 15 15 16 16 16 16 16 16 16 16 15 16 16 16 15 15 15 16 16 16 17 17 17 17 17 17
22 21 21 20 20 20 19 19 18 18 17 16 15 15 15 15 15 15 15 15 15 15 15 14 14 15 15 15 15 15 15 15 14 14 14 15 15 16 16 16 16 16 16
22 21 21 20 20 20 19 19 18 17 17 16 15 15 15 15 15 14 14 13 13 13 13 13 13 14 14 15 15 15 15 14 14 14 14 14 15 15 15 15 15 15 15
Wind_Speed
8 14 22 21 19 18 17 17 16 17 17 17 17 16 15 14 13 12 12 11 10 10 10 9 9 8 8 8 9 9 10 10 10 10 10 11 12 12 12 11 11 10 12
13 18 23 22 20 19 17 17 17 17 17 17 16 15 14 12 12 11 11 10 9 9 9 9 8 8 8 8 8 8 8 7 9 8 8 8 9 9 11 11 10 9 12
14 17 21 21 20 19 18 17 17 18 17 16 15 14 13 12 11 10 10 9 8 7 7 8 8 7 7 7 7 7 7 5 6 7 6 4 4 4 8 11 11 12 11
15 16 17 20 19 19 18 18 18 18 18 17 16 14 13 11 10 9 9 8 7 6 6 6 6 6 6 6 6 6 6 6 5 6 5 4 2 3 8 11 11 12 12
11 15 18 20 19 18 19 19 18 18 18 17 16 15 13 11 10 9 8 7 7 6 5 4 4 5 5 6 6 6 6 6 7 6 5 5 4 5 7 10 11 11 11
11 14 18 21 19 18 18 18 18 17 17 16 15 14 12 11 10 9 8 7 7 6 6 6 5 6 6 7 7 7 7 7 6 4 4 5 6 7 9 11 12 12 11
12 12 17 22 20 18 17 17 16 16 15 14 13 12 11 10 10 9 8 9 8 8 8 8 8 9 9 9 9 8 8 8 7 6 6 7 8 9 12 16 16 15 14
11 10 14 20 19 18 17 16 16 14 14 13 12 11 10 10 9 9 10 10 10 10 10 10 11 11 11 11 10 10 10 10 9 7 8 8 10 11 11 17 19 19 18
8 7 9 14 16 17 16 16 15 14 13 12 12 11 11 11 11 12 12 12 13 12 13 13 13 13 13 13 13 13 12 12 10 9 9 9 10 12 12 15 19 20 20
7 6 5 9 11 12 13 14 14 13 13 12 12 12 12 12 12 12 14 15 15 15 15 16 16 15 15 14 15 15 14 13 12 12 11 11 13 14 15 15 19 22 22
9 7 6 6 7 9 11 13 14 14 14 14 13 14 14 13 13 12 14 15 16 16 17 17 18 17 17 16 17 17 16 13 12 13 13 14 16 16 17 18 19 22 24
11 10 8 8 8 9 10 11 12 13 13 14 13 14 13 12 13 13 13 16 17 18 19 19 20 20 18 15 16 18 15 15 14 14 15 17 18 19 20 20 21 21 23
11 11 9 9 7 8 7 8 8 9 10 12 14 14 12 11 11 12 11 13 15 17 16 17 18 17 15 14 13 14 15 14 13 14 16 19 20 21 21 22 21 21 23
10 12 10 8 7 6 6 5 6 6 7 8 11 13 11 8 8 10 10 12 13 13 13 14 11 13 15 16 15 14 15 13 13 14 16 20 21 22 22 21 22 21 23
11 11 9 10 10 8 7 5 5 6 8 10 11 12 14 9 9 8 9 12 13 15 13 10 11 11 11 13 14 14 13 14 15 15 15 20 21 22 22 22 22 23 23
9 10 9 10 10 9 8 8 6 6 7 8 10 14 16 14 10 9 10 8 10 14 15 12 10 12 11 10 12 12 13 13 14 16 16 17 20 22 23 23 23 23 22
8 8 8 8 7 7 8 7 5 6 7 7 10 14 15 15 13 9 9 9 10 14 14 12 12 10 9 9 11 12 10 11 13 15 16 16 16 18 21 22 24 24 23
7 7 8 8 8 9 8 7 5 6 7 8 11 12 13 14 13 9 8 10 11 12 9 10 10 9 9 10 10 9 9 9 12 13 14 14 14 15 17 20 22 24 25
7 7 7 7 8 8 9 7 6 5 6 6 7 7 8 10 10 7 8 8 10 8 8 9 9 9 10 11 10 9 9 9 10 10 11 12 14 15 16 17 20 22 24
5 5 5 4 3 4 4 4 4 4 5 4 4 5 6 7 7 5 6 8 7 7 7 8 10 9 8 8 9 8 8 9 8 9 11 11 11 15 17 17 17 17 19
3 4 4 4 4 4 2 2 2 3 3 2 3 4 5 6 6 4 5 6 6 6 8 8 8 9 8 5 4 6 6 8 10 10 10 10 12 13 15 15 15 16 16
4 3 3 4 4 3 2 2 2 2 2 2 2 3 4 5 7 6 7 7 7 7 8 8 8 5 5 6 5 5 4 4 6 7 8 9 10 9 10 11 13 15 16
6 6 5 6 5 4 4 2 1 1 2 2 2 3 3 5 6 6 7 8 8 8 9 9 9 9 8 7 8 6 5 6 3 2 3 5 6 6 7 7 10 12 15
9 7 7 6 5 4 4 4 4 3 3 2 1 3 6 7 8 8 9 10 10 9 10 11 10 10 10 8 7 9 8 5 4 3 2 2 3 5 5 5 6 6 6
5 5 6 5 5 4 4 5 5 4 3 2 2 4 5 7 8 10 10 11 11 10 11 11 11 11 10 10 8 7 9 7 7 6 5 3 2 3 3 4 4 3 2
4 5 4 5 6 6 6 6 7 7 6 4 3 4 5 6 7 8 10 10 10 10 10 10 10 11 10 11 10 8 7 5 6 7 8 6 4 2 0 2 2 2 2
Wind_Direction
162 161 162 158 157 153 145 141 137 131 128 127 129 133 135 135 137 136 132 127 120 113 111 110 111 111 109 107 105 103 104 110 113 112 117 121 123 119 114 115 118 121 124
153 161 163 161 159 156 150 147 143 138 137 134 134 137 137 138 139 138 135 132 126 120 117 115 114 114 114 116 116 116 117 120 124 124 131 133 131 126 127 130 131 134 133
148 160 164 163 161 158 156 155 151 147 145 143 142 141 140 142 145 144 140 138 136 132 128 127 125 124 123 125 127 128 130 129 130 141 134 119 138 152 163 148 149 144 143
150 157 164 165 163 161 161 161 158 155 152 151 151 149 148 147 148 149 149 149 149 147 146 146 146 144 145 146 148 148 149 152 157 154 141 160 189 158 156 160 162 158 154
147 156 167 169 168 167 167 167 165 162 159 158 159 159 159 159 161 163 164 165 166 168 172 177 176 173 173 177 183 183 180 180 183 177 176 189 202 196 179 176 177 177 169
150 159 171 172 175 175 174 174 172 169 166 165 165 166 167 171 177 180 180 185 188 191 198 208 215 215 212 211 214 215 213 213 210 201 212 220 217 214 212 202 195 191 188
156 162 174 175 178 179 179 181 181 178 174 174 175 176 179 185 194 198 201 204 206 210 216 223 230 234 238 238 238 236 235 236 228 227 237 242 241 247 238 215 206 202 199
154 159 175 178 181 183 184 186 187 186 183 184 186 189 194 200 205 208 213 220 221 220 225 232 238 241 244 247 249 249 252 252 251 239 240 246 252 262 253 222 212 208 205
136 146 168 179 187 188 189 191 193 192 192 195 197 201 208 214 220 221 218 223 229 232 236 241 244 247 248 247 249 252 256 260 259 255 255 252 256 263 263 239 225 219 214
127 134 146 164 181 190 194 199 203 204 202 204 209 215 220 225 231 230 227 229 234 240 245 247 248 251 252 249 251 254 255 257 258 260 259 257 257 261 264 258 242 231 223
153 145 146 150 163 180 191 204 208 211 213 214 218 225 228 230 237 241 241 238 243 248 252 253 253 253 253 253 253 254 256 254 254 260 260 259 261 260 260 261 256 244 233
175 170 162 165 164 173 193 200 206 209 212 215 219 229 232 229 236 244 247 247 248 251 255 256 255 256 254 250 251 254 253 250 253 259 259 258 260 261 260 258 255 251 244
181 184 183 181 179 181 189 187 195 201 207 214 220 224 228 232 241 248 248 251 253 255 256 257 255 253 249 244 244 246 249 251 253 258 260 259 259 259 261 262 256 251 246
181 195 193 189 190 196 201 207 206 206 212 219 222 222 222 230 238 243 245 244 245 247 249 254 253 250 248 246 245 246 248 249 250 253 258 261 260 262 263 265 263 262 259
187 196 196 197 202 200 203 213 217 221 226 231 231 229 227 231 238 237 242 244 246 249 248 245 246 244 245 246 245 244 246 246 248 250 255 259 261 263 263 263 265 268 266
193 200 199 203 209 208 215 221 226 230 238 242 241 239 236 237 238 237 240 240 244 247 251 250 246 245 242 239 241 241 244 246 248 249 252 257 259 260 261 262 262 263 258
203 206 209 211 208 216 231 236 231 229 232 237 244 247 246 245 247 247 246 247 247 247 250 253 251 245 244 242 244 244 244 246 246 247 250 255 259 259 258 261 264 261 254
190 197 210 214 203 211 220 226 227 230 235 245 249 250 250 251 250 253 256 258 256 251 246 248 248 245 243 242 243 243 242 246 249 247 247 250 257 263 264 261 261 261 259
173 181 189 199 207 213 217 223 231 235 240 250 256 254 257 261 259 249 254 262 265 260 251 248 244 237 236 237 238 240 240 242 247 250 249 249 251 258 264 264 260 257 260
154 167 176 185 188 179 195 213 231 247 249 243 242 244 251 258 262 254 255 262 267 266 260 250 250 242 236 235 244 246 241 239 240 243 248 249 248 251 256 260 263 261 260
170 169 172 172 175 161 162 183 212 245 259 264 260 269 286 297 300 287 279 276 269 261 257 252 249 246 241 219 218 251 251 241 241 242 242 244 248 251 255 259 264 266 264
219 202 193 200 202 194 179 188 195 216 258 273 291 309 325 328 317 308 294 288 280 271 264 257 247 246 237 200 203 226 262 274 242 240 245 247 251 254 258 262 263 262 260
235 228 220 219 220 221 204 181 155 32 344 334 334 332 332 323 311 300 294 290 285 276 268 256 243 240 244 223 205 203 212 231 260 269 248 250 252 251 259 268 272 268 260
231 233 233 229 228 228 202 201 199 203 237 250 291 304 312 315 314 311 303 297 291 284 275 266 251 238 235 234 217 216 219 195 202 254 269 250 243 250 264 278 277 273 253
240 238 239 249 259 253 228 216 206 208 210 217 248 286 299 306 308 307 305 302 295 288 280 272 261 247 235 232 222 211 219 217 211 221 248 248 257 255 269 292 286 283 275
265 255 244 246 259 252 233 215 202 204 198 210 253 286 297 301 303 301 308 307 300 292 286 280 271 259 247 238 229 213 202 200 203 208 225 233 243 251 299 15 12 12 12
Height
1511 1515 1518 1521 1524 1527 1530 1532 1534 1536 1538 1539 1541 1543 1545 1546 1547 1548 1549 1550 1550 1550 1551 1551 1552 1552 1553 1553 1553 1554 1554 1555 1555 1555 1555 1555 1555 1556 1556 1557 1557 1558 1558
1510 1515 1518 1521 1524 1527 1531 1533 1535 1537 1539 1541 1543 1545 1546 1548 1549 1550 1551 1552 1552 1552 1553 1553 1553 1554 1554 1555 1555 1555 1555 1556 1556 1557 1557 1557 1557 1557 1558 1558 1559 1559 1559
1512 1515 1519 1522 1525 1528 1531 1534 1536 1538 1540 1542 1544 1546 1548 1549 1550 1552 1553 1553 1554 1554 1554 1555 1555 1555 1556 1556 1556 1557 1557 1557 1558 1558 1558 1558 1559 1559 1559 1560 1560 1560 1561
1514 1517 1520 1524 1526 1529 1532 1535 1537 1539 1541 1543 1545 1547 1548 1550 1551 1553 1554 1554 1555 1556 1556 1556 1556 1557 1557 1557 1558 1558 1558 1558 1559 1559 1559 1560 1560 1561 1561 1561 1561 1562 1562
1515 1519 1522 1525 1528 1530 1533 1535 1538 1540 1542 1544 1545 1547 1548 1550 1552 1553 1554 1554 1555 1556 1557 1557 1557 1558 1558 1558 1558 1558 1558 1558 1559 1559 1559 1560 1560 1561 1561 1562 1562 1562 1563
1516 1519 1523 1526 1529 1531 1534 1536 1539 1541 1543 1545 1547 1548 1549 1550 1551 1552 1553 1554 1554 1555 1556 1557 1557 1558 1558 1558 1558 1558 1558 1558 1559 1559 1559 1560 1560 1560 1561 1561 1562 1562 1563
1516 1520 1523 1526 1529 1532 1535 1538 1540 1542 1544 1546 1547 1548 1549 1550 1551 1551 1552 1553 1553 1554 1555 1556 1556 1557 1557 1558 1558 1558 1558 1558 1558 1558 1559 1559 1559 1559 1559 1560 1560 1561 1562
1518 1521 1524 1527 1530 1533 1536 1538 1541 1543 1545 1546 1547 1548 1549 1550 1550 1551 1551 1552 1553 1553 1554 1555 1555 1556 1556 1556 1556 1557 1557 1557 1557 1557 1557 1557 1557 1557 1558 1558 1559 1559 1559
1519 1522 1525 1528 1531 1534 1536 1539 1541 1543 1545 1546 1547 1548 1549 1549 1550 1550 1551 1551 1552 1552 1552 1553 1554 1554 1554 1555 1555 1555 1555 1555 1555 1555 1554 1554 1554 1555 1555 1556 1557 1557 1557
1520 1523 1526 1528 1531 1534 1536 1539 1541 1542 1543 1545 1546 1547 1548 1549 1549 1549 1550 1551 1551 1551 1551 1551 1552 1552 1552 1552 1552 1552 1552 1552 1552 1552 1552 1551 1551 1551 1552 1553 1554 1555 1555
1519 1522 1525 1527 1530 1533 1535 1537 1539 1540 1542 1543 1544 1546 1547 1547 1548 1548 1549 1549 1550 1550 1550 1550 1550 1550 1550 1550 1550 1549 1549 1548 1549 1548 1548 1548 1548 1548 1548 1549 1550 1552 1552
1519 1521 1524 1527 1529 1531 1533 1535 1536 1537 1539 1540 1541 1543 1544 1545 1546 1547 1547 1547 1548 1548 1548 1548 1547 1548 1547 1547 1547 1546 1546 1545 1545 1544 1545 1545 1545 1545 1545 1545 1547 1548 1549
1520 1522 1524 1525 1527 1529 1530 1532 1533 1534 1536 1537 1538 1540 1541 1542 1543 1544 1544 1544 1545 1545 1545 1545 1545 1545 1545 1544 1544 1543 1543 1542 1542 1541 1542 1542 1542 1542 1542 1542 1543 1544 1545
1520 1522 1524 1525 1526 1527 1528 1530 1531 1532 1533 1534 1536 1537 1538 1539 1540 1541 1541 1541 1541 1542 1542 1542 1542 1542 1542 1541 1541 1540 1539 1539 1539 1539 1538 1538 1538 1539 1539 1539 1539 1540 1541
1520 1522 1524 1525 1525 1526 1526 1528 1529 1530 1531 1532 1533 1534 1535 1535 1536 1538 1538 1538 1538 1538 1538 1538 1538 1538 1537 1537 1537 1536 1535 1535 1535 1535 1534 1535 1534 1535 1535 1535 1536 1536 1537
1521 1523 1524 1525 1526 1526 1526 1527 1527 1528 1528 1529 1530 1531 1532 1532 1531 1532 1533 1533 1533 1533 1533 1532 1531 1532 1531 1531 1531 1530 1530 1531 1531 1531 1530 1530 1530 1530 1530 1531 1532 1532 1532
1520 1521 1523 1524 1524 1525 1525 1525 1525 1525 1525 1526 1527 1527 1527 1527 1527 1527 1527 1527 1527 1527 1526 1524 1524 1525 1525 1525 1525 1525 1525 1525 1525 1526 1526 1526 1525 1526 1526 1526 1527 1527 1528
1517 1519 1520 1520 1521 1522 1522 1522 1521 1521 1522 1522 1522 1522 1522 1522 1522 1522 1521 1520 1521 1520 1519 1518 1516 1516 1515 1516 1517 1518 1519 1520 1520 1520 1520 1521 1521 1521 1521 1521 1522 1522 1522
1516 1516 1517 1517 1518 1519 1519 1519 1519 1519 1518 1518 1518 1518 1517 1516 1515 1514 1513 1513 1513 1512 1510 1510 1509 1509 1509 1510 1511 1512 1512 1513 1513 1514 1514 1514 1515 1515 1515 1515 1515 1516 1516
1514 1514 1514 1515 1515 1516 1516 1516 1516 1516 1515 1515 1515 1514 1513 1512 1510 1509 1508 1507 1506 1504 1503 1503 1502 1502 1502 1503 1504 1504 1505 1505 1506 1506 1507 1508 1509 1509 1509 1509 1509 1508 1508
1513 1512 1513 1514 1514 1514 1515 1514 1514 1513 1512 1512 1510 1509 1508 1507 1505 1503 1502 1500 1499 1497 1496 1496 1495 1495 1494 1495 1496 1497 1497 1498 1498 1499 1500 1500 1501 1502 1502 1501 1501 1500 1499
1511 1511 1512 1513 1513 1513 1513 1512 1511 1510 1509 1508 1506 1505 1503 1501 1500 1497 1495 1494 1492 1490 1489 1488 1487 1487 1487 1488 1489 1490 1489 1490 1490 1492 1493 1493 1494 1494 1494 1493 1493 1492 1491
1510 1511 1511 1511 1511 1511 1511 1510 1508 1507 1506 1505 1503 1502 1499 1496 1494 1491 1489 1486 1484 1481 1479 1479 1478 1478 1478 1479 1481 1483 1482 1481 1483 1483 1484 1486 1487 1487 1487 1487 1486 1485 1484
1508 1509 1510 1510 1510 1509 1508 1507 1505 1504 1503 1501 1499 1497 1495 1492 1489 1485 1482 1478 1475 1471 1469 1468 1468 1469 1470 1471 1472 1473 1475 1476 1478 1477 1478 1480 1482 1482 1482 1481 1481 1480 1479
1506 1507 1507 1507 1507 1507 1505 1503 1501 1500 1499 1497 1495 1492 1490 1487 1483 1479 1474 1470 1466 1462 1459 1458 1458 1459 1461 1462 1464 1465 1466 1467 1469 1471 1471 1473 1476 1477 1476 1476 1475 1474 1474
1503 1504 1504 1504 1504 1503 1501 1499 1497 1496 1494 1493 1490 1488 1485 1481 1476 1472 1468 1464 1461 1457 1453 1451 1451 1452 1453 1454 1455 1456 1458 1460 1461 1463 1465 1467 1470 1471 1471 1470 1470 1470 1470